This is the latest recevied weather packets stored in our database for station/object DL9GRB-13. If no packets are shown the sender has not sent any weather packets the latest 10 day(s).
| Time | Temp. | Humidity | Pressure | Rain* | Wind** | Luminosity | Snow |
|---|---|---|---|---|---|---|---|
| 1777194125 | 11.11° C | 40% | 1024.2 hPa | 0 mm | - | 581 W/m² | - |
| 1777193945 | 11.11° C | 39% | 1024.3 hPa | 0 mm | - | 573 W/m² | - |
| 1777193765 | 11.67° C | 38% | 1024.3 hPa | 0 mm | - | 565 W/m² | - |
| 1777193585 | 11.67° C | 39% | 1024.3 hPa | 0 mm | - | 559 W/m² | - |
| 1777193405 | 11.11° C | 39% | 1024.3 hPa | 0 mm | - | 552 W/m² | - |
| 1777193225 | 11.67° C | 38% | 1024.1 hPa | 0 mm | - | 546 W/m² | - |
| 1777193045 | 11.67° C | 38% | 1024.2 hPa | 0 mm | - | 540 W/m² | - |
| 1777192865 | 11.67° C | 40% | 1024.1 hPa | 0 mm | - | 533 W/m² | - |
| 1777192685 | 11.67° C | 38% | 1024.1 hPa | 0 mm | - | 531 W/m² | - |
| 1777192504 | 11.67° C | 39% | 1024.2 hPa | 0 mm | - | 522 W/m² | - |
| 1777192325 | 11.11° C | 41% | 1024.2 hPa | 0 mm | - | 515 W/m² | - |
| 1777192144 | 10.56° C | 42% | 1023.9 hPa | 0 mm | - | 509 W/m² | - |
| 1777191965 | 10.56° C | 39% | 1024 hPa | 0 mm | - | 501 W/m² | - |
| 1777191785 | 10.56° C | 39% | 1024 hPa | 0 mm | - | 495 W/m² | - |
| 1777191604 | 10.56° C | 39% | 1023.9 hPa | 0 mm | - | 485 W/m² | - |
| 1777191425 | 10.56° C | 40% | 1024 hPa | 0 mm | - | 481 W/m² | - |
| 1777191245 | 10.56° C | 38% | 1023.8 hPa | 0 mm | - | 472 W/m² | - |
| 1777191065 | 10.56° C | 39% | 1024.1 hPa | 0 mm | - | 460 W/m² | - |
| 1777190884 | 11.11° C | 38% | 1023.9 hPa | 0 mm | - | 444 W/m² | - |
| 1777190705 | 10.56° C | 39% | 1023.9 hPa | 0 mm | - | 422 W/m² | - |
| 1777190525 | 10.56° C | 37% | 1024 hPa | 0 mm | - | 352 W/m² | - |
| 1777190345 | 10.56° C | 39% | 1024 hPa | 0 mm | - | 223 W/m² | - |
| 1777190165 | 10.56° C | 36% | 1023.8 hPa | 0 mm | - | 226 W/m² | - |
| 1777189985 | 10.56° C | 37% | 1023.8 hPa | 0 mm | - | 351 W/m² | - |
| 1777189805 | 10.56° C | 38% | 1023.9 hPa | 0 mm | - | 388 W/m² | - |
* Rain latest hour (hover to see other rain measurements)
** Current wind speed in m/s (hover to see current wind gust speed)